Regional Weather Roundup
Issued by NWS Memphis, TN

Home | Current Version | Previous Version | Text Only | Print | Product List | Glossary On
Versions: 1 2 3 4 5 6 7 8 9 10 11 12 13 14 15 16 17 18 19 20 21 22 23 24 25 26 27 28 29 30 31 32 33 34 35 36 37 38 39 40 41 42 43 44 45 46 47 48 49 50
000
ASUS44 KMEG 260200
RWRMEG
MEMPHIS CWA HOURLY WEATHER ROUNDUP
NATIONAL WEATHER SERVICE MEMPHIS TN
900 PM CDT SUN JUN 25 2017

...WEST TENNESSEE...

CITY           SKY/WX    TMP DP  RH WIND       PRES   REMARKS
MEMPHIS INTL   CLEAR     78  50  37 CALM      30.18S
NWS MEMPHIS      N/A     70 N/A N/A MISG        N/A
JACKSON        CLEAR     68  61  78 CALM      30.18S


...EASTERN ARKANSAS...

CITY           SKY/WX    TMP DP  RH WIND       PRES   REMARKS
JONESBORO      CLEAR     70  63  78 CALM      30.16S
WEST MEMPHIS   CLEAR     70  66  87 CALM      30.17S
BATESVILLE     CLEAR     72  61  68 S3        30.18S
WALNUT RIDGE   CLEAR     75  55  50 S5        30.16S
BLYTHEVILLE    CLEAR     77  58  51 CALM      30.17S
SEARCY         CLEAR     70  64  81 CALM      30.19S
STUTTGART      PTCLDY    79  54  41 E5        30.18F
PINE BLUFF     CLEAR     73  65  75 CALM      30.17S
MONTICELLO     CLEAR     73  66  78 CALM      30.17S


...NORTH MISSISSIPPI...

CITY           SKY/WX    TMP DP  RH WIND       PRES   REMARKS
TUPELO         CLEAR     72  57  59 CALM      30.17S
BATESVILLE     CLEAR     67  63  89 CALM      30.19S
TUNICA           N/A     70  63  78 N5        30.18S
CLARKSDALE       N/A     73  72  94 CALM      30.17S
GREENWOOD      CLEAR     70  68  93 CALM      30.16S
STARKVILLE     CLEAR     68  64  88 CALM      30.19R
GOLDEN TRIANGL CLEAR     70  61  73 S5        30.14R


...SOUTHEAST MISSOURI...

CITY           SKY/WX    TMP DP  RH WIND       PRES   REMARKS
KENNETT        CLEAR     75  66  73 CALM      30.15S
MALDEN         PTCLDY    79  55  44 CALM      30.17S
WEST PLAINS    PTCLDY    72  55  55 NW3       30.22S
POPLAR BLUFF   CLEAR     74  62  66 CALM      30.15S
CAPE GIRARDEAU CLEAR     70  58  65 SW3       30.15S


...NORTHWEST ALABAMA...

CITY           SKY/WX    TMP DP  RH WIND       PRES   REMARKS
MUSCLE SHOALS  CLEAR     72  54  53 CALM      30.19S


...MIDDLE TENNESSEE...

CITY           SKY/WX    TMP DP  RH WIND       PRES   REMARKS
NASHVILLE      PTCLDY    71  51  49 SW3       30.18S
CLARKSVILLE    CLEAR     71  54  54 SW5       30.16S


...WESTERN KENTUCKY...

CITY           SKY/WX    TMP DP  RH WIND       PRES   REMARKS
PADUCAH        CLEAR     68  62  81 CALM      30.14S
FORT CAMPBELL  CLEAR     72  56  57 SW3       30.16R


...CENTRAL ARKANSAS...

CITY           SKY/WX    TMP DP  RH WIND       PRES   REMARKS
LITTLE ROCK    PTCLDY    72  62  71 SE3       30.17S


SKY/WX REPORTED AS FAIR MEANS FEW OR NO CLOUDS BELOW
12 THOUSAND FEET.




USA.gov is the U.S. government's official web portal to all federal, state and local government web resources and services.